Weather History for CYXE - November, 2012

Change the Weather History Date:

Wednesday, November 14, 2012

  Actual Average Record
Temperature  
Mean Temperature 20 °F -  
Max Temperature 30 °F 23 °F 55 °F (2001)
Min Temperature 10 °F 5 °F -5 °F (2014)
Degree Days  
Heating Degree Days 45    
Moisture  
Dew Point 15 °F    
Average Humidity 86    
Maximum Humidity 93    
Minimum Humidity 75    
Precipitation  
Precipitation 0.00 in 0.02 in - ()
Sea Level Pressure  
Sea Level Pressure 30.03 in    
Wind  
Wind Speed 8 mph ()    
Max Wind Speed 14 mph    
Max Gust Speed -    
Visibility 15.0 miles    
Events      
Averages and records for this station are not official NWS values.
T = Trace of Precipitation, MM = Missing Value Source: Averaged Metar Reports

Daily Weather History Graph

Daily Weather History Graph

Search for Another Location

Airport or City:

Trip Planner

Search our weather history database for the weather conditions in past years. The results will help you decide how hot, cold, wet, or windy it might be!

Date:

Astronomy

Nov. 14, 2012 Rise Set
Actual Time 8:26 AM CST 5:15 PM CST
Civil Twilight 7:48 AM CST 5:52 PM CST
Nautical Twilight 7:07 AM CST 6:34 PM CST
Astronomical Twilight 6:27 AM CST 7:14 PM CST
Moon 9:27 AM CST (11/14) 5:58 PM CST (11/14)
Length of Visible Light 10h 04m
Length of Day
8h 48m
New Moon, 1% of the Moon is Illuminated
Nov 14
New Moon
Nov 20
First Quarter
Nov 28
Full
Dec 6
Last Quarter
Dec 13
New

Hourly Weather History & Observations

Time (CST) Temp. Windchill Dew Point Humidity Pressure Visibility Wind Dir Wind Speed Gust Speed Precip Events Conditions
12:00 AM 17.6 °F 7.3 °F 15.8 °F 93% 30.05 in 15.0 mi SSW 8.1 mph - N/A   Scattered Clouds
1:00 AM 14.0 °F 3.9 °F 12.2 °F 93% 30.05 in 15.0 mi SSW 6.9 mph - N/A   Partly Cloudy
2:00 AM 12.2 °F -0.2 °F 10.4 °F 92% 30.02 in 15.0 mi South 9.2 mph - N/A   Scattered Clouds
3:00 AM 12.2 °F 0.7 °F 10.4 °F 92% 30.03 in 15.0 mi SSW 8.1 mph - N/A   Partly Cloudy
4:00 AM 10.4 °F -2.4 °F 8.6 °F 92% 30.02 in 15.0 mi South 9.2 mph - N/A   Clear
5:00 AM 10.4 °F -1.5 °F 8.6 °F 92% 30.00 in 15.0 mi SSW 8.1 mph - N/A   Clear
6:00 AM 10.4 °F 0.8 °F 6.8 °F 85% 29.98 in 15.0 mi SSW 5.8 mph - N/A   Clear
7:00 AM 10.4 °F -0.4 °F 8.6 °F 92% 29.97 in 15.0 mi South 6.9 mph - N/A   Clear
8:00 AM 12.2 °F 1.7 °F 8.6 °F 85% 29.96 in 15.0 mi South 6.9 mph - N/A   Partly Cloudy
9:00 AM 12.2 °F -0.2 °F 10.4 °F 92% 29.96 in 15.0 mi SW 9.2 mph - N/A   Scattered Clouds
10:00 AM 14.0 °F 0.5 °F 12.2 °F 93% 29.95 in 15.0 mi SSW 11.5 mph - N/A   Mostly Cloudy
11:00 AM 19.4 °F 7.9 °F 15.8 °F 86% 29.94 in 15.0 mi SW 10.4 mph - N/A   Mostly Cloudy
12:00 PM 23.0 °F 11.1 °F 19.4 °F 86% 29.94 in 15.0 mi SW 12.7 mph - N/A   Mostly Cloudy
1:00 PM 24.8 °F 12.9 °F 19.4 °F 80% 29.94 in 15.0 mi WSW 13.8 mph - N/A   Mostly Cloudy
2:00 PM 24.8 °F 14.0 °F 19.4 °F 80% 29.95 in 15.0 mi WSW 11.5 mph - N/A   Scattered Clouds
3:00 PM 30.2 °F 21.9 °F 23.0 °F 75% 29.97 in 15.0 mi WNW 9.2 mph - N/A   Partly Cloudy
4:00 PM 28.4 °F 20.4 °F 23.0 °F 80% 30.00 in 15.0 mi WNW 8.1 mph - N/A   Scattered Clouds
5:00 PM 30.2 °F 20.2 °F 24.8 °F 80% 30.03 in 15.0 mi WNW 12.7 mph - N/A   Mostly Cloudy
6:00 PM 28.4 °F 18.5 °F 24.8 °F 86% 30.06 in 15.0 mi WNW 11.5 mph - N/A   Scattered Clouds
7:00 PM 26.6 °F 16.2 °F 21.2 °F 80% 30.11 in 15.0 mi WNW 11.5 mph - N/A   Partly Cloudy
8:00 PM 23.0 °F 11.7 °F 17.6 °F 80% 30.15 in 15.0 mi WNW 11.5 mph - N/A   Partly Cloudy
9:00 PM 21.2 °F 10.1 °F 15.8 °F 80% 30.19 in 15.0 mi WNW 10.4 mph - N/A   Partly Cloudy
10:00 PM 15.8 °F 3.4 °F 12.2 °F 86% 30.22 in 15.0 mi WNW 10.4 mph - N/A   Clear
11:00 PM 14.0 °F 2.0 °F 10.4 °F 86% 30.24 in 15.0 mi WNW 9.2 mph - N/A   Clear